{"data":{"norad_id":65236,"epoch":"2026-05-25T02:13:23.531808Z","epoch_age_seconds":60826,"freshness":"FRESH","line1":"1 65236U 25179B   26145.09263347 -.00002398  00000+0 -16224-3 0  9999","line2":"2 65236  97.4458 187.8877 0001599 119.0903 241.0484 15.05645017 43367","mean_motion":15.05645017,"eccentricity":0.0001599,"inclination_deg":97.4458,"raan_deg":187.8877,"arg_perigee_deg":119.0903,"mean_anomaly_deg":241.0484,"bstar":-0.00016224,"rev_number":4336,"period_min":95.640073439701,"perigee_km":548.41870555586,"apogee_km":550.63417232363,"semimajor_km":6927.6634389397,"source":"CELESTRAK","updated_at":"2026-05-25T13:38:20.724008Z"}}